Cloud_Cover
76 80 92 92 92 92 92 92 92 92 92 92 88 76 68 56 44 32 12 0 0 0 0 0 0 0 8 32 64 68 24 20 20 36 76 80 88 88 88 88 88 88 88 88 80 80 80 76 68 56 0 0 0 0 0 0 32 68 76 88 80 64 44 32 12 0 0 0 0 0 0 0 0 0 0 0 0 0 0 0 0 0 0 0 0 0
80 88 92 92 92 92 92 92 92 92 92 92 88 80 80 68 64 44 24 8 8 8 12 8 8 8 12 20 32 32 20 12 12 20 32 56 68 76 88 80 80 80 88 80 80 80 80 48 32 20 0 0 0 0 0 0 0 0 8 48 32 0 0 0 0 0 0 0 0 0 0 0 0 0 0 0 0 0 0 0 0 0 0 0 0 0
92 92 92 92 92 92 92 92 92 92 92 92 92 92 92 88 68 44 20 12 24 36 24 20 20 12 24 12 8 8 8 8 8 12 12 12 24 44 64 44 56 68 80 76 76 76 68 36 24 12 8 8 0 0 0 0 0 0 0 0 0 0 0 0 0 0 0 0 0 0 0 0 0 0 0 0 0 0 0 0 0 0 0 0 0 0
92 92 92 92 92 92 92 92 92 92 92 92 92 92 92 92 76 48 24 12 36 48 24 24 20 20 32 24 20 20 12 12 12 8 12 12 12 12 12 12 20 36 56 48 44 44 36 20 20 20 20 20 20 20 20 12 8 8 8 0 0 0 0 0 0 0 0 0 0 0 0 0 0 0 0 0 0 0 0 0 0 0 0 0 0 0
92 92 92 92 92 92 92 92 92 92 92 92 92 92 92 88 80 64 36 24 36 44 32 36 32 32 32 36 32 24 20 12 12 12 12 8 8 12 12 12 12 12 12 12 20 20 20 12 12 12 12 12 20 20 12 12 12 12 8 8 0 0 0 0 0 0 0 0 0 0 0 0 0 0 0 0 0 0 0 0 0 0 0 0 0 0
92 92 92 92 92 92 92 92 92 92 92 92 92 92 92 88 80 68 56 44 32 32 24 36 36 44 44 44 36 24 12 20 20 20 12 12 12 12 12 12 12 12 12 12 12 12 12 12 12 12 12 12 12 12 12 12 12 12 8 0 0 0 0 0 0 0 0 0 0 0 0 0 0 0 0 0 0 0 0 0 0 0 0 0 0 0
92 92 92 92 92 92 92 92 92 92 92 92 92 92 92 92 88 80 76 56 44 36 32 24 32 36 48 48 44 36 24 24 24 24 20 24 20 20 12 12 12 12 12 12 12 12 12 12 12 12 12 12 12 12 12 12 12 8 8 8 0 0 12 0 0 0 0 0 0 0 0 0 0 0 0 0 0 0 0 0 0 0 0 0 0 0
92 92 92 92 92 92 92 92 92 92 92 92 92 92 92 92 92 92 88 80 64 48 64 48 44 44 64 64 64 56 44 32 24 24 24 32 24 24 20 20 20 20 12 12 12 12 12 12 12 12 12 12 12 12 12 12 12 12 12 8 8 12 24 8 0 0 0 0 0 0 0 0 0 0 0 12 8 0 0 0 0 0 0 0 0 0
92 92 92 92 92 92 92 92 92 92 92 92 92 92 92 92 92 92 92 92 76 68 92 80 68 64 76 64 76 76 56 36 32 24 24 32 32 32 32 24 24 20 12 12 12 8 8 12 12 12 12 12 12 12 12 12 12 20 20 20 20 20 12 8 0 0 0 0 0 0 0 12 24 36 44 56 32 0 0 0 0 0 0 0 0 0
92 92 92 92 92 92 92 92 92 92 92 92 92 92 92 92 92 92 92 92 88 88 92 92 92 88 88 80 76 76 68 64 56 44 36 44 44 36 36 36 32 24 24 24 24 20 8 12 12 12 12 12 12 12 20 24 24 24 20 20 20 12 0 0 0 0 0 0 0 0 0 24 56 76 80 76 48 12 0 0 0 0 0 0 0 0
92 92 92 92 92 92 92 92 92 92 92 92 92 92 92 92 92 92 92 92 92 92 92 92 92 92 92 80 68 64 76 80 80 68 48 56 56 48 48 44 44 36 32 44 48 48 36 36 32 20 12 12 20 20 36 36 36 24 8 8 8 8 0 0 0 0 0 0 0 0 0 8 20 32 44 36 24 12 0 0 0 0 0 0 0 0
92 92 92 92 92 92 92 92 92 92 92 92 92 92 92 92 92 92 92 92 92 92 92 92 92 92 92 80 76 76 80 92 92 88 64 64 64 56 56 48 48 48 56 76 80 80 76 76 68 48 36 44 36 36 44 24 20 8 0 0 0 0 0 0 0 0 0 0 0 0 0 0 0 0 12 8 0 0 0 0 0 0 0 0 0 0
92 92 92 92 92 92 92 92 92 92 92 92 92 88 92 92 92 92 92 92 92 92 92 92 92 92 92 88 88 88 92 92 92 88 68 68 68 64 56 48 48 44 36 48 68 92 92 92 88 80 76 68 56 48 44 24 20 20 12 12 0 0 0 0 0 0 0 0 0 0 0 0 0 0 0 0 0 0 0 0 0 0 0 0 0 0
92 92 88 88 92 92 92 92 92 92 92 92 92 92 92 92 92 88 92 92 92 92 92 92 88 88 92 92 92 92 92 92 92 92 88 88 76 64 48 48 48 44 36 44 56 76 88 92 92 88 88 88 56 32 32 24 20 20 20 20 20 20 12 8 0 0 0 0 0 0 0 0 0 0 0 0 0 0 0 0 0 0 0 0 0 0
88 88 92 88 92 92 92 92 92 92 92 92 92 92 92 92 92 92 92 92 92 92 92 92 92 92 92 92 92 92 92 92 92 92 92 92 92 88 88 68 56 48 48 48 56 68 92 92 92 92 92 48 24 20 20 12 12 8 0 0 8 8 0 8 8 0 0 0 0 0 0 0 0 0 0 0 0 0 0 0 0 0 0 0 0 0
76 76 76 88 92 92 92 92 92 92 92 92 92 88 76 80 88 92 92 92 92 92 92 80 68 68 80 92 92 92 92 92 92 92 92 92 92 92 92 80 76 68 68 64 56 56 76 56 56 56 56 36 24 12 12 12 8 8 8 0 0 0 0 0 0 0 0 0 0 0 0 0 0 0 0 0 0 0 0 0 0 0 0 0 0 0
80 80 80 76 80 92 92 92 92 88 92 92 92 92 88 80 68 68 92 92 92 88 68 64 64 68 64 80 92 92 92 88 92 92 92 92 92 92 92 80 76 68 68 64 56 48 48 36 36 48 56 48 44 32 20 12 12 8 8 8 0 0 0 0 0 0 0 0 0 0 0 0 0 0 0 0 0 0 0 0 0 0 0 0 0 0
88 80 88 88 88 88 88 88 88 92 92 88 88 92 92 92 76 56 68 88 92 88 64 56 64 68 76 88 88 92 92 92 92 92 92 92 92 92 80 88 88 88 88 64 48 36 24 24 32 44 64 48 36 24 20 20 20 12 12 20 20 12 12 12 12 12 12 0 0 0 0 0 0 0 0 0 0 0 0 0 0 0 0 0 0 0
88 80 88 80 88 88 88 88 88 88 88 80 80 80 92 92 92 92 88 92 92 92 92 76 76 80 80 88 92 92 92 92 92 92 92 92 92 92 92 88 88 92 92 92 88 76 20 32 44 48 56 36 24 20 8 20 20 24 36 20 12 12 0 0 0 8 0 0 0 0 0 0 0 0 0 0 0 0 0 0 0 0 0 0 0 0
92 92 88 88 88 88 92 92 92 88 88 80 80 80 92 92 92 92 92 92 92 92 92 92 80 80 88 80 88 92 92 92 92 92 92 92 92 92 92 88 88 92 92 88 68 48 44 36 44 48 64 44 32 20 12 24 32 32 24 12 8 0 0 0 0 0 0 0 0 0 0 0 0 0 0 0 0 0 0 0 0 0 0 0 0 0
92 92 92 92 92 92 92 92 92 92 92 92 92 92 92 92 92 92 92 92 92 92 92 92 88 88 88 88 92 92 92 92 92 92 92 92 92 92 92 76 80 92 92 92 92 80 56 48 44 44 48 44 36 32 24 56 64 48 36 32 20 8 0 0 0 0 8 0 0 0 0 0 0 0 0 0 0 0 0 0 0 0 0 0 0 0
88 92 92 92 92 88 92 92 92 92 92 92 92 92 92 92 92 92 92 92 92 92 92 88 80 80 76 88 88 92 92 92 92 92 92 92 92 92 92 88 88 92 92 92 92 80 48 36 36 36 44 48 48 44 44 80 88 88 68 36 20 8 0 0 0 8 8 8 8 8 8 0 0 0 0 0 0 0 0 0 0 0 0 0 0 0
88 88 88 88 92 92 92 92 92 92 92 92 92 92 92 92 88 88 88 92 92 92 92 92 92 92 88 88 88 92 92 92 92 92 92 92 92 92 92 80 80 88 88 88 88 76 56 44 36 36 44 56 64 64 56 68 80 92 92 64 32 8 0 20 20 8 0 8 12 12 12 8 0 0 0 0 0 0 0 0 0 0 0 0 0 0
92 88 88 88 92 92 92 92 92 92 92 92 92 92 92 92 92 92 88 92 92 92 92 92 92 92 92 92 88 88 88 92 92 92 92 92 92 92 80 88 88 92 92 88 76 68 64 48 44 44 48 64 68 68 64 88 92 92 92 56 32 12 8 44 48 32 12 0 8 20 24 20 8 0 0 0 0 0 0 0 0 0 0 0 0 0
92 88 88 88 92 92 92 92 92 92 88 88 88 92 92 92 92 92 92 92 92 92 92 92 92 92 92 92 88 88 88 92 92 92 92 92 92 92 92 92 88 88 88 88 80 80 68 56 48 56 56 76 80 80 76 88 92 88 88 48 32 32 56 76 56 24 12 8 8 20 36 24 20 12 0 0 0 0 0 0 0 0 0 0 0 0
88 88 88 88 92 92 92 92 92 88 92 88 88 92 92 92 92 92 92 92 92 92 92 92 92 92 92 92 92 88 92 92 92 92 92 92 92 92 92 92 88 88 92 92 92 88 76 64 56 56 56 68 80 92 92 88 88 76 68 48 48 64 80 56 48 36 32 24 20 24 44 44 36 32 20 0 0 0 0 0 0 0 0 0 0 0
92 92 88 88 88 92 92 92 92 92 92 92 88 88 88 92 92 92 92 92 92 92 92 92 92 92 92 92 92 92 92 92 92 92 92 92 92 92 88 88 92 92 92 92 88 80 68 64 64 64 64 68 76 88 92 88 76 68 56 48 64 68 48 48 44 44 48 44 44 44 56 56 56 44 12 0 0 0 0 0 0 0 0 0 0 0
88 88 88 88 88 92 92 92 92 92 92 92 92 92 88 88 88 88 92 92 92 92 92 92 92 92 92 92 92 92 92 92 92 92 92 92 92 92 92 92 92 92 92 92 88 76 68 76 76 76 68 76 68 76 80 80 76 64 64 56 48 48 48 56 64 64 56 64 64 56 68 76 68 48 8 0 8 8 0 0 0 0 0 0 0 0
88 88 88 88 92 92 92 92 92 92 92 92 92 92 92 92 88 88 88 92 92 92 92 92 92 92 92 92 92 92 92 92 92 92 92 92 92 92 92 92 92 92 88 92 92 88 88 88 88 88 88 88 80 76 76 88 80 68 56 64 64 64 64 68 76 76 80 76 68 68 76 76 68 48 20 12 20 20 20 0 0 0 0 0 0 0
88 88 88 88 92 92 92 92 92 92 92 92 92 92 92 88 88 88 88 88 88 88 88 88 88 92 88 88 88 92 92 92 92 92 92 88 88 88 88 88 88 88 88 88 88 88 88 88 88 92 88 92 88 88 88 92 88 80 56 64 68 76 76 68 68 68 76 68 68 76 76 64 48 44 32 32 32 32 32 12 0 0 0 0 0 0
88 88 88 88 92 92 92 92 92 92 92 92 92 92 88 92 92 88 88 88 88 88 88 88 88 88 88 88 88 88 88 88 88 88 92 88 88 88 88 88 88 88 88 88 88 88 88 92 92 88 88 88 88 88 88 88 88 80 64 68 76 76 68 56 48 56 64 76 76 76 76 64 48 36 32 36 44 44 36 20 8 0 0 0 0 0
88 88 88 88 92 92 92 88 88 88 88 88 92 92 92 92 92 92 88 88 88 88 88 88 88 92 92 92 88 88 88 92 92 88 88 88 88 88 88 88 88 88 88 92 92 92 92 92 92 92 88 88 88 88 88 88 88 80 68 68 68 64 64 48 44 56 76 80 80 76 68 64 48 44 24 36 48 44 20 8 0 0 0 0 0 0
92 92 92 92 92 92 92 92 88 88 92 92 92 92 92 92 92 92 92 92 92 92 92 88 88 88 92 92 92 92 92 92 92 92 92 92 88 88 88 88 88 88 92 92 92 92 92 92 92 92 92 88 88 88 88 80 76 76 68 64 64 64 56 48 56 68 80 80 80 76 68 68 56 36 20 32 36 32 8 0 0 0 0 0 8 8
92 92 92 92 92 92 92 92 92 92 92 92 92 92 92 92 92 92 92 92 92 92 92 92 92 92 92 92 92 92 92 92 92 92 92 88 88 88 88 88 88 88 92 88 92 92 92 92 92 92 92 88 80 80 80 64 64 64 68 64 56 56 48 56 68 80 80 80 80 76 68 64 44 24 12 20 20 20 0 0 0 0 20 20 24 32
92 92 92 92 92 92 92 92 92 92 92 92 92 92 92 92 92 92 92 92 92 92 92 92 92 92 88 92 92 92 88 92 92 92 92 92 88 88 88 88 88 88 88 88 88 92 92 92 92 92 88 80 76 76 80 68 64 64 64 56 48 44 44 64 76 80 80 80 80 76 64 32 20 12 8 8 8 0 0 0 0 12 36 32 36 48
92 92 92 92 92 92 92 92 92 92 92 92 92 92 92 92 92 92 92 92 92 92 92 92 92 92 92 88 88 88 88 88 88 88 88 88 88 88 88 88 88 88 88 88 88 88 92 92 92 88 80 76 80 88 88 76 68 64 64 56 48 44 36 44 56 68 80 68 64 64 64 20 8 8 8 0 0 0 0 20 24 36 44 44 48 64
88 88 92 92 92 88 88 92 92 92 92 92 92 92 92 92 92 92 92 92 92 92 92 92 92 92 88 88 88 88 88 88 88 88 88 88 88 88 88 92 92 88 88 88 88 88 88 92 92 88 88 88 92 88 76 68 68 68 68 56 48 44 32 36 44 56 64 44 36 36 24 12 8 0 0 0 0 8 32 36 44 44 44 48 48 48
88 88 88 88 88 88 88 88 88 88 88 88 88 92 92 92 88 88 92 92 92 88 88 88 88 88 88 88 92 92 88 88 88 88 88 88 88 88 88 88 88 88 88 88 88 88 88 88 92 92 92 92 92 88 80 76 76 76 68 64 56 48 36 44 36 36 36 20 20 20 12 8 8 0 0 0 0 12 36 44 44 44 36 44 44 36
88 92 92 92 92 92 88 88 88 92 92 88 88 88 92 92 92 92 88 88 88 88 88 88 88 88 88 88 88 88 88 88 88 88 88 88 88 88 88 88 88 88 88 88 88 88 88 88 88 88 88 92 92 88 88 88 80 80 76 68 64 48 48 44 36 24 12 8 8 8 8 0 0 0 0 12 24 32 36 36 36 36 36 44 36 36
92 92 92 92 92 92 92 92 92 92 92 92 92 92 88 88 88 88 92 92 92 92 92 88 88 88 88 88 88 88 88 88 88 88 88 88 88 88 88 88 88 88 88 88 88 88 88 88 88 88 88 88 80 76 76 80 76 76 76 64 56 44 32 32 20 8 0 0 0 0 0 0 0 8 12 32 36 36 36 32 32 32 32 36 44 48
92 92 92 92 92 92 92 92 92 92 92 92 92 88 88 88 88 88 88 92 92 92 92 92 88 88 88 88 88 88 88 88 88 88 88 88 88 88 88 88 88 88 88 92 92 92 92 92 92 92 92 80 80 76 68 64 64 56 36 36 32 20 12 12 12 8 8 8 0 0 0 8 12 20 24 32 36 36 32 24 24 32 32 36 44 48
92 92 92 92 92 92 92 92 92 92 88 88 88 88 88 88 88 88 88 88 88 92 92 88 88 88 88 88 88 88 88 88 80 80 88 88 88 88 88 88 88 88 92 92 92 92 92 92 92 92 92 88 80 76 76 68 64 56 56 48 36 20 12 8 8 8 12 8 8 8 12 24 24 32 32 32 32 24 24 20 24 24 32 32 36 36
88 88 88 88 88 88 88 88 92 92 88 88 88 88 88 88 88 88 88 88 88 92 92 92 88 88 88 88 80 80 80 76 80 88 88 88 88 88 80 80 80 80 88 88 92 92 92 92 92 88 80 80 76 68 68 64 56 44 44 36 24 12 12 8 8 12 12 12 20 24 24 32 36 36 36 32 32 24 20 20 20 20 32 36 36 36
88 88 80 88 88 88 88 88 88 88 88 88 88 88 88 88 88 88 88 88 88 88 88 88 88 88 88 88 88 88 92 80 80 80 88 88 88 80 80 80 80 80 80 88 92 92 92 92 88 80 76 80 76 68 64 56 44 32 24 20 20 12 12 12 20 24 24 24 36 48 44 48 44 44 36 24 20 12 12 20 24 24 32 36 36 36
88 80 80 80 88 88 88 88 88 88 88 88 88 88 88 88 88 88 88 88 88 88 88 88 88 88 88 88 88 92 92 88 80 80 88 80 80 80 80 80 80 80 80 80 88 88 92 88 80 76 76 80 80 76 68 56 44 32 20 12 12 20 20 24 32 36 32 36 56 68 56 56 36 24 20 24 24 20 20 24 24 24 24 32 36 36
88 80 80 80 88 88 88 88 88 88 88 88 88 88 88 80 80 88 88 88 88 88 88 88 88 88 88 88 92 92 92 88 88 80 80 80 80 80 80 80 80 80 80 80 80 88 88 88 80 76 76 80 76 64 48 44 36 32 24 24 24 32 24 32 44 64 64 68 64 56 56 68 48 32 24 24 24 24 32 24 24 32 32 32 32 32
88 80 80 80 80 88 88 88 88 88 88 88 80 80 76 68 76 80 88 88 88 88 88 88 88 88 88 88 88 88 88 88 88 88 88 76 76 76 76 80 80 80 80 80 80 80 80 80 80 80 80 80 68 48 48 36 36 32 32 32 36 44 44 48 64 80 80 64 48 48 44 48 44 32 32 32 32 24 24 32 32 32 32 32 32 24
88 88 76 76 76 76 80 80 80 80 88 88 80 68 68 64 68 76 80 80 88 88 80 80 88 88 88 80 80 88 88 80 80 76 68 64 64 64 68 68 76 80 80 80 80 80 80 80 80 76 76 76 64 48 36 32 36 44 48 48 64 80 80 80 80 80 80 64 64 56 44 36 36 36 32 36 36 36 32 32 32 32 32 32 32 24
88 88 80 88 80 80 80 76 76 80 80 80 76 68 64 56 64 68 68 76 80 80 80 80 80 88 88 88 80 80 80 76 76 76 68 64 64 64 64 64 68 76 80 80 80 80 80 80 68 64 64 64 56 44 44 44 56 76 80 80 80 80 80 80 80 80 76 68 64 64 56 44 44 44 36 36 36 36 32 32 32 32 32 32 32 24
88 88 88 88 88 88 88 80 88 88 80 80 80 76 68 64 64 64 64 64 64 68 76 80 80 80 80 80 80 80 80 76 76 76 76 68 64 64 64 68 76 80 80 80 80 80 80 76 64 48 48 56 64 64 68 76 80 80 80 80 88 88 80 80 80 76 76 64 56 48 44 44 36 36 36 32 36 36 32 32 32 24 32 32 24 24
88 88 88 88 88 88 88 88 88 88 88 88 88 88 80 76 68 64 56 56 56 56 64 64 68 76 76 76 76 80 76 76 76 76 76 68 68 68 68 76 76 80 80 80 80 80 76 68 64 56 56 68 76 76 76 80 76 76 76 80 80 80 76 76 68 56 48 44 44 44 48 48 44 44 48 44 44 48 44 36 32 24 32 24 24 24